Weather History for Pampa, TX

Change the Weather History Date:

Saturday, December 1, 2012

  Actual Average Record
Temperature  
Mean Temperature 58 °F -  
Max Temperature 73 °F 53 °F 79 °F (1973)
Min Temperature 39 °F 26 °F 5 °F (1985)
Degree Days  
Heating Degree Days 8    
Growing Degree Days 8 (Base 50)    
Moisture  
Dew Point 23 °F    
Average Humidity 30    
Maximum Humidity 61    
Minimum Humidity 13    
Precipitation  
Precipitation 0.00 in - - ()
Sea Level Pressure  
Sea Level Pressure 29.92 in    
Wind  
Wind Speed 13 mph (WNW)    
Max Wind Speed 23 mph    
Max Gust Speed 29 mph    
Visibility 10 miles    
Events      
Averages and records for this station are not official NWS values.
T = Trace of Precipitation, MM = Missing Value Source: NWS Daily Summary

Daily Weather History Graph

Daily Weather History Graph

Search for Another Location

Airport:

Trip Planner

Search our weather history database for the weather conditions in past years. The results will help you decide how hot, cold, wet, or windy it might be!

Date:

Astronomy

Dec. 01, 2012 Rise Set
Actual Time 7:35 AM CST 5:30 PM CST
Civil Twilight 7:07 AM CST 5:58 PM CST
Nautical Twilight 6:36 AM CST 6:30 PM CST
Astronomical Twilight 6:05 AM CST 7:01 PM CST
Moon 8:20 PM CST (12/1) 9:51 AM CST (12/1)
Length of Visible Light 10h 51m
Length of Day
9h 55m
Waning Gibbous, 91% of the Moon is Illuminated
Dec 1
Waning Gibbous
Dec 6
Last Quarter
Dec 13
New
Dec 19
First Quarter
Dec 28
Full

Hourly Weather History & Observations

Time (CST) Temp. Windchill Dew Point Humidity Pressure Visibility Wind Dir Wind Speed Gust Speed Precip Events Conditions
12:15 AM 44.6 °F 38.4 °F 28.4 °F 53% 29.89 in 10.0 mi SSW 12.7 mph - N/A   Clear
12:35 AM 46.4 °F 41.1 °F 26.6 °F 46% 29.89 in 10.0 mi SW 11.5 mph - N/A   Clear
12:55 AM 48.2 °F - 26.6 °F 43% 29.89 in 10.0 mi SSW 10.4 mph - N/A   Clear
1:15 AM 46.4 °F 40.7 °F 23.0 °F 40% 29.87 in 10.0 mi SW 12.7 mph - N/A   Clear
1:35 AM 50.0 °F - 23.0 °F 35% 29.87 in 10.0 mi SW 11.5 mph - N/A   Clear
2:15 AM 50.0 °F - 21.2 °F 32% 29.86 in 10.0 mi WSW 9.2 mph - N/A   Clear
2:55 AM 53.6 °F - 21.2 °F 28% 29.85 in 10.0 mi WSW 15.0 mph - N/A   Clear
3:15 AM 55.4 °F - 21.2 °F 26% 29.85 in 10.0 mi West 16.1 mph - N/A   Clear
3:35 AM 55.4 °F - 21.2 °F 26% 29.84 in 10.0 mi WSW 17.3 mph - N/A   Clear
4:15 AM 53.6 °F - 21.2 °F 28% 29.84 in 10.0 mi West 15.0 mph - N/A   Clear
4:35 AM 53.6 °F - 21.2 °F 28% 29.84 in 10.0 mi WSW 13.8 mph - N/A   Clear
5:15 AM 53.6 °F - 21.2 °F 28% 29.84 in 10.0 mi WNW 15.0 mph 19.6 mph N/A   Clear
5:35 AM 55.4 °F - 21.2 °F 26% 29.84 in 10.0 mi West 16.1 mph - N/A   Clear
6:35 AM 53.6 °F - 21.2 °F 28% 29.85 in 10.0 mi WNW 13.8 mph - N/A   Clear
6:55 AM 51.8 °F - 21.2 °F 30% 29.85 in 10.0 mi West 12.7 mph - N/A   Clear
7:15 AM 51.8 °F - 21.2 °F 30% 29.86 in 10.0 mi West 12.7 mph - N/A   Clear
7:35 AM 53.6 °F - 21.2 °F 28% 29.86 in 10.0 mi WSW 11.5 mph 17.3 mph N/A   Clear
7:55 AM 53.6 °F - 21.2 °F 28% 29.87 in 10.0 mi West 12.7 mph - N/A   Clear
8:15 AM 53.6 °F - 21.2 °F 28% 29.87 in 10.0 mi West 12.7 mph - N/A   Clear
8:35 AM 53.6 °F - 21.2 °F 28% 29.89 in 10.0 mi West 13.8 mph - N/A   Clear
9:15 AM 59.0 °F - 21.2 °F 23% 29.89 in 10.0 mi West 15.0 mph - N/A   Clear
9:35 AM 59.0 °F - 21.2 °F 23% 29.90 in 10.0 mi WNW 11.5 mph 19.6 mph N/A   Clear
10:15 AM 62.6 °F - 23.0 °F 22% 29.90 in 10.0 mi West 15.0 mph - N/A   Clear
10:35 AM 64.4 °F - 23.0 °F 21% 29.90 in 10.0 mi West 19.6 mph 23.0 mph N/A   Clear
10:55 AM 68.0 °F - 21.2 °F 17% 29.91 in 10.0 mi WNW 23.0 mph - N/A   Clear
11:15 AM 68.0 °F - 21.2 °F 17% 29.92 in 10.0 mi West 21.9 mph 25.3 mph N/A   Clear
11:35 AM 69.8 °F - 21.2 °F 16% 29.92 in 10.0 mi WNW 17.3 mph 26.5 mph N/A   Clear
12:15 PM 68.0 °F - 19.4 °F 16% 29.91 in 10.0 mi WNW 23.0 mph 28.8 mph N/A   Clear
12:35 PM 69.8 °F - 19.4 °F 15% 29.91 in 10.0 mi WNW 21.9 mph 25.3 mph N/A   Clear
12:55 PM 71.6 °F - 19.4 °F 14% 29.90 in 10.0 mi WNW 18.4 mph 25.3 mph N/A   Clear
1:15 PM 71.6 °F - 19.4 °F 14% 29.90 in 10.0 mi WNW 18.4 mph 23.0 mph N/A   Clear
1:35 PM 71.6 °F - 19.4 °F 14% 29.89 in 10.0 mi WNW 17.3 mph 24.2 mph N/A   Clear
1:55 PM 73.4 °F - 19.4 °F 13% 29.89 in 10.0 mi West 18.4 mph 24.2 mph N/A   Clear
2:15 PM 71.6 °F - 19.4 °F 14% 29.89 in 10.0 mi WNW 15.0 mph - N/A   Clear
2:35 PM 73.4 °F - 19.4 °F 13% 29.89 in 10.0 mi West 16.1 mph - N/A   Clear
2:55 PM 71.6 °F - 21.2 °F 15% 29.89 in 10.0 mi WNW 16.1 mph - N/A   Clear
3:15 PM 71.6 °F - 21.2 °F 15% 29.89 in 10.0 mi WNW 15.0 mph - N/A   Clear
3:35 PM 71.6 °F - 21.2 °F 15% 29.90 in 10.0 mi NW 13.8 mph - N/A   Clear
3:55 PM 71.6 °F - 21.2 °F 15% 29.90 in 10.0 mi NW 10.4 mph - N/A   Clear
4:15 PM 71.6 °F - 21.2 °F 15% 29.91 in 10.0 mi NW 11.5 mph - N/A   Clear
4:35 PM 69.8 °F - 23.0 °F 17% 29.91 in 10.0 mi NNW 13.8 mph - N/A   Clear
4:55 PM 68.0 °F - 21.2 °F 17% 29.92 in 10.0 mi North 10.4 mph - N/A   Clear
5:15 PM 62.6 °F - 21.2 °F 20% 29.93 in 10.0 mi North 8.1 mph - N/A   Clear
5:55 PM 55.4 °F - 23.0 °F 29% 29.95 in 10.0 mi North 9.2 mph - N/A   Clear
6:15 PM 53.6 °F - 23.0 °F 30% 29.95 in 10.0 mi North 9.2 mph - N/A   Clear
6:35 PM 51.8 °F - 23.0 °F 33% 29.96 in 10.0 mi North 10.4 mph - N/A   Clear
6:55 PM 50.0 °F - 23.0 °F 35% 29.96 in 10.0 mi North 9.2 mph - N/A   Clear
7:15 PM 50.0 °F - 23.0 °F 35% 29.98 in 10.0 mi North 9.2 mph - N/A   Clear
7:35 PM 50.0 °F - 23.0 °F 35% 29.98 in 10.0 mi NNW 5.8 mph - N/A   Clear
7:55 PM 50.0 °F - 23.0 °F 35% 30.00 in 10.0 mi NNW 5.8 mph - N/A   Clear
8:15 PM 48.2 °F - 24.8 °F 40% 30.00 in 10.0 mi NNW 6.9 mph - N/A   Clear
8:35 PM 46.4 °F 42.9 °F 26.6 °F 46% 30.00 in 10.0 mi NNW 6.9 mph - N/A   Clear
8:55 PM 46.4 °F 42.9 °F 26.6 °F 46% 30.01 in 10.0 mi NNW 6.9 mph - N/A   Clear
9:15 PM 46.4 °F 43.5 °F 28.4 °F 50% 30.02 in 10.0 mi NW 5.8 mph - N/A   Clear
9:35 PM 42.8 °F 37.5 °F 26.6 °F 53% 30.02 in 10.0 mi NNW 9.2 mph - N/A   Clear
9:55 PM 44.6 °F 39.7 °F 28.4 °F 53% 30.02 in 10.0 mi North 9.2 mph - N/A   Clear
10:15 PM 44.6 °F 40.7 °F 28.4 °F 53% 30.02 in 10.0 mi North 6.9 mph - N/A   Clear
10:35 PM 44.6 °F 40.7 °F 28.4 °F 53% 30.02 in 10.0 mi NNE 6.9 mph - N/A   Clear
10:55 PM 44.6 °F 41.4 °F 28.4 °F 53% 30.02 in 10.0 mi North 5.8 mph - N/A   Clear
11:15 PM 44.6 °F 42.2 °F 28.4 °F 53% 30.02 in 10.0 mi North 4.6 mph - N/A   Clear
11:35 PM 42.8 °F 39.3 °F 28.4 °F 57% 30.03 in 10.0 mi WNW 5.8 mph - N/A   Clear
11:55 PM 39.2 °F 35.0 °F 26.6 °F 61% 30.03 in 10.0 mi WNW 5.8 mph - N/A   Clear